Content
SEND FEEDBACK

Daily
Averages
Monthly
Summary
United States of America

INARAJAN, GUAM


Home > North America > United States > Guam
Elevation: 280 feet     Latitude: 13 18N     Longitude: 144 44E

WEATHER
 
SELECT A DAY
Number of Records: 342,038;   Date Range: 1/1/95 - 7/29/14
 
SHARE

PRINT THIS DATA

[ ← Previous Day ]
WEATHER ALMANAC - APRIL 9, 2013
[ Next Day → ]
[ °C ]   °F
We're sorry. There is no daily almanac available for Inarajan, Guam on April 9, 2013.
WEATHER BY HOUR - APRIL 9, 2013
[ °C ]   °F
Local TimeTemperatureDewpointHumidityBarometerVisibilityWind DirectionWind SpeedGust SpeedPrecipitationEventsConditions
12:20 AM77.0 °F69.8 °F78 %29.87 in10.0 miENE (60°)10.4 mphMostly Cloudy
12:21 AM77.0 °F71.6 °F83 %29.87 in10.0 miENE (60°)10.4 mphMostly Cloudy
12:32 AM77.0 °F71.6 °F83 %29.87 in10.0 miENE (70°)11.5 mphMostly Cloudy
12:43 AM77.0 °F69.8 °F78 %29.87 in10.0 miENE (60°)11.5 mphMostly Cloudy
12:46 AM77.0 °F69.8 °F78 %29.87 in10.0 miEast (80°)15.0 mphScattered Clouds
12:55 AM77.5 °F70.7 °F79 %29.86 in10.0 miENE (60°)13.8 mphScattered Clouds
12:57 AM77.0 °F69.8 °F78 %29.86 in10.0 miENE (60°)12.7 mphMostly Cloudy
1:01 AM77.0 °F69.8 °F78 %29.86 in10.0 miENE (70°)13.8 mphScattered Clouds
1:03 AM77.0 °F69.8 °F78 %29.86 in10.0 miENE (70°)11.5 mphMostly Cloudy
1:05 AM77.0 °F69.8 °F78 %29.86 in10.0 miENE (70°)13.8 mphScattered Clouds
1:21 AM77.0 °F71.6 °F83 %29.86 in10.0 miENE (60°)10.4 mphMostly Cloudy
1:28 AM77.0 °F71.6 °F83 %29.86 in10.0 miENE (60°)11.5 mphScattered Clouds
1:44 AM77.0 °F71.6 °F83 %29.86 in10.0 miENE (70°)9.2 mphMostly Cloudy
1:55 AM77.7 °F72.0 °F82 %29.85 in10.0 miENE (60°)11.5 mphMostly Cloudy
2:07 AM77.0 °F71.6 °F83 %29.85 in10.0 miENE (60°)11.5 mphScattered Clouds
2:13 AM77.0 °F71.6 °F83 %29.85 in10.0 miENE (60°)12.7 mphMostly Cloudy
2:49 AM77.0 °F71.6 °F83 %29.84 in10.0 miENE (60°)11.5 mphScattered Clouds
2:53 AM77.0 °F71.6 °F83 %29.84 in10.0 miNE (50°)13.8 mphMostly Cloudy
2:55 AM77.7 °F72.3 °F83 %29.84 in10.0 miNE (50°)12.7 mphMostly Cloudy
3:02 AM78.8 °F71.6 °F78 %29.83 in10.0 miNE (50°)13.8 mphScattered Clouds
3:55 AM77.2 °F71.6 °F83 %29.83 in10.0 miENE (60°)11.5 mphScattered Clouds
4:22 AM77.0 °F71.6 °F83 %29.83 in10.0 miENE (70°)9.2 mphMostly Cloudy
4:29 AM77.0 °F71.6 °F83 %29.83 in10.0 miENE (70°)10.4 mphScattered Clouds
4:30 AM77.0 °F71.6 °F83 %29.83 in10.0 miENE (60°)10.4 mphMostly Cloudy
4:55 AM77.5 °F71.8 °F82 %29.83 in10.0 miEast (90°)10.4 mphMostly Cloudy
5:03 AM77.0 °F69.8 °F78 %29.83 in10.0 miEast (90°)12.7 mphScattered Clouds
5:55 AM76.6 °F69.1 °F77 %29.84 in10.0 miEast (90°)12.7 mphClear
6:45 AM77.0 °F71.6 °F83 %29.86 in10.0 miEast (80°)12.7 mphMostly Cloudy
6:55 AM78.1 °F72.3 °F82 %29.86 in10.0 miEast (80°)11.5 mphMostly Cloudy
7:11 AM78.8 °F71.6 °F78 %29.86 in10.0 miENE (60°)12.7 mphScattered Clouds
7:13 AM78.8 °F71.6 °F78 %29.87 in10.0 miENE (60°)16.1 mphMostly Cloudy
7:17 AM78.8 °F71.6 °F78 %29.87 in10.0 miENE (70°)15.0 mphScattered Clouds
7:19 AM78.8 °F71.6 °F78 %29.87 in10.0 miENE (70°)12.7 mphMostly Cloudy
7:29 AM78.8 °F71.6 °F78 %29.87 in10.0 miENE (60°)16.1 mphScattered Clouds
7:55 AM80.1 °F71.4 °F75 %29.88 in10.0 miENE (70°)13.8 mphClear
8:55 AM82.6 °F70.7 °F67 %29.89 in10.0 miEast (80°)17.3 mphClear
9:55 AM83.5 °F71.4 °F67 %29.89 in10.0 miENE (60°)17.3 mphPartly Cloudy
10:55 AM84.6 °F71.8 °F65 %29.88 in10.0 miEast (80°)17.3 mph21.9 mphClear
11:55 AM84.7 °F71.8 °F65 %29.86 in10.0 miENE (60°)16.1 mph23.0 mphClear
11:59 AM84.2 °F71.6 °F66 %29.89 in10.0 miEast (80°)16.1 mph23.0 mphPartly Cloudy
12:55 PM84.9 °F72.5 °F66 %29.84 in10.0 miENE (60°)18.4 mphScattered Clouds
1:55 PM84.4 °F70.9 °F64 %29.81 in10.0 miNE (50°)16.1 mph23.0 mphScattered Clouds
2:55 PM83.8 °F71.4 °F66 %29.79 in10.0 miENE (60°)15.0 mphScattered Clouds
3:55 PM83.7 °F70.7 °F65 %29.79 in10.0 miENE (60°)15.0 mph20.7 mphClear
4:23 PM82.4 °F71.6 °F70 %29.79 in10.0 miENE (60°)13.8 mphMostly Cloudy
4:30 PM82.4 °F71.6 °F70 %29.79 in10.0 miENE (60°)13.8 mphScattered Clouds
4:32 PM82.4 °F71.6 °F70 %29.79 in10.0 miENE (70°)15.0 mphMostly Cloudy
4:34 PM82.4 °F71.6 °F70 %29.79 in10.0 miENE (60°)13.8 mphScattered Clouds
4:41 PM82.4 °F71.6 °F70 %29.79 in10.0 miEast (80°)15.0 mphMostly Cloudy
4:45 PM82.4 °F71.6 °F70 %29.79 in10.0 miEast (80°)12.7 mphScattered Clouds
4:46 PM82.4 °F71.6 °F70 %29.79 in10.0 miEast (80°)13.8 mphMostly Cloudy
4:50 PM82.4 °F71.6 °F70 %29.79 in10.0 miEast (80°)13.8 mphScattered Clouds
4:53 PM82.4 °F71.6 °F70 %29.79 in10.0 miEast (80°)13.8 mphMostly Cloudy
4:55 PM81.5 °F72.3 °F74 %29.79 in10.0 miEast (80°)13.8 mphScattered Clouds
5:04 PM82.4 °F73.4 °F74 %29.79 in10.0 miENE (70°)15.0 mphMostly Cloudy
5:55 PM80.2 °F72.9 °F78 %29.81 in10.0 miENE (70°)11.5 mphOvercast
6:55 PM79.7 °F73.9 °F82 %29.82 in10.0 miENE (70°)12.7 mphMostly Cloudy
7:10 PM78.8 °F73.4 °F83 %29.83 in10.0 miENE (60°)15.0 mphMostly Cloudy
7:25 PM78.8 °F73.4 °F83 %29.84 in10.0 miENE (60°)12.7 mphScattered Clouds
7:30 PM78.8 °F73.4 °F83 %29.84 in10.0 miENE (60°)15.0 mphMostly Cloudy
7:34 PM78.8 °F73.4 °F83 %29.84 in10.0 miENE (60°)12.7 mphMostly Cloudy
7:35 PM78.8 °F73.4 °F83 %29.84 in10.0 miENE (60°)13.8 mphMostly Cloudy
7:36 PM78.8 °F73.4 °F83 %29.84 in10.0 miENE (60°)15.0 mphMostly Cloudy
7:45 PM80.6 °F73.4 °F79 %29.84 in10.0 miENE (60°)16.1 mphMostly Cloudy
7:46 PM80.6 °F73.4 °F79 %29.84 in10.0 miENE (60°)16.1 mphMostly Cloudy
7:48 PM78.8 °F73.4 °F83 %29.84 in10.0 miENE (70°)17.3 mph23.0 mphMostly Cloudy
7:55 PM79.3 °F73.2 °F81 %29.85 in10.0 miENE (70°)15.0 mph23.0 mphMostly Cloudy
8:38 PM78.8 °F75.2 °F89 %29.86 in10.0 miENE (70°)12.7 mphScattered Clouds
8:44 PM78.8 °F75.2 °F89 %29.86 in10.0 miENE (60°)10.4 mphMostly Cloudy
8:50 PM78.8 °F73.4 °F83 %29.86 in10.0 miENE (70°)12.7 mphMostly Cloudy
8:55 PM79.2 °F74.3 °F85 %29.86 in10.0 miEast (80°)17.3 mphMostly Cloudy
8:56 PM78.8 °F73.4 °F83 %29.86 in10.0 miEast (80°)16.1 mphMostly Cloudy
9:01 PM78.8 °F73.4 °F83 %29.86 in10.0 miEast (80°)12.7 mphScattered Clouds
9:03 PM78.8 °F73.4 °F83 %29.86 in10.0 miEast (80°)15.0 mphMostly Cloudy
9:05 PM78.8 °F73.4 °F83 %29.86 in10.0 miEast (80°)15.0 mphScattered Clouds
9:09 PM78.8 °F75.2 °F89 %29.86 in10.0 miENE (70°)16.1 mphMostly Cloudy
9:20 PM78.8 °F73.4 °F83 %29.87 in10.0 miENE (70°)15.0 mphScattered Clouds
9:21 PM78.8 °F73.4 °F83 %29.87 in10.0 miENE (70°)13.8 mphMostly Cloudy
9:27 PM78.8 °F75.2 °F89 %29.87 in10.0 miENE (70°)13.8 mphMostly Cloudy
9:31 PM78.8 °F75.2 °F89 %29.87 in10.0 miENE (60°)13.8 mphMostly Cloudy
9:35 PM78.8 °F75.2 °F89 %29.87 in10.0 miENE (60°)15.0 mphMostly Cloudy
9:49 PM78.8 °F73.4 °F83 %29.87 in10.0 miENE (70°)13.8 mph21.9 mphMostly Cloudy
9:55 PM79.0 °F73.9 °F84 %29.87 in10.0 miENE (60°)15.0 mphMostly Cloudy
9:56 PM78.8 °F73.4 °F83 %29.87 in10.0 miENE (60°)13.8 mphMostly Cloudy
10:03 PM78.8 °F73.4 °F83 %29.87 in10.0 miENE (60°)13.8 mphMostly Cloudy
10:06 PM78.8 °F73.4 °F83 %29.87 in10.0 miENE (60°)13.8 mphScattered Clouds
10:55 PM78.6 °F72.7 °F82 %29.88 in10.0 miENE (60°)15.0 mphPartly Cloudy
11:55 PM78.8 °F72.5 °F81 %29.87 in10.0 miENE (70°)13.8 mphMostly Cloudy
Hourly data recorded from PGUA, located miles away from Inarajan, Guam







STORIES FROM OUR PARTNERS